Weather History for Texarkana, AR

Change the Weather History Date:

Monday, November 19, 2012

  Actual Average Record
Temperature  
Mean Temperature 58 °F 53 °F  
Max Temperature 67 °F 63 °F 83 °F (1913)
Min Temperature 49 °F 43 °F 20 °F (1914)
Degree Days  
Heating Degree Days 7 12  
Month to date heating degree days 187 180  
Since 1 July heating degree days 322 298  
Cooling Degree Days 0 0  
Month to date cooling degree days 16 14  
Year to date cooling degree days 2791 2202  
Growing Degree Days 7 (Base 50)    
Moisture  
Dew Point 43 °F    
Average Humidity 61    
Maximum Humidity 80    
Minimum Humidity 42    
Precipitation  
Precipitation T in 0.16 in 3.08 in (1988)
Month to date precipitation 0.92 2.95  
Year to date precipitation 27.48 42.73  
Snow  
Snow 0.00 in - - ()
Month to date snowfall 0.0  
Since 1 July snowfall 0.0  
Since 1 September snowfall 0.0  
Snow Depth 0.00 in    
Sea Level Pressure  
Sea Level Pressure 30.23 in    
Wind  
Wind Speed 3 mph (SSE)    
Max Wind Speed 8 mph    
Max Gust Speed 12 mph    
Visibility 10 miles    
Events Rain    
T = Trace of Precipitation, MM = Missing Value Source: NWS Daily Summary

Daily Weather History Graph

Daily Weather History Graph

Search for Another Location

Airport:

Trip Planner

Search our weather history database for the weather conditions in past years. The results will help you decide how hot, cold, wet, or windy it might be!

Date:

Astronomy

Nov. 19, 2012 Rise Set
Actual Time 6:51 AM CST 5:11 PM CST
Civil Twilight 6:24 AM CST 5:37 PM CST
Nautical Twilight 5:54 AM CST 6:07 PM CST
Astronomical Twilight 5:25 AM CST 6:37 PM CST
Moon 12:01 PM CST 11:30 PM CST
Length of Visible Light 11h 12m
Length of Day
10h 19m
Waxing Crescent, 41% of the Moon is Illuminated
Nov 19
Waxing Crescent
Nov 20
First Quarter
Nov 28
Full
Dec 6
Last Quarter
Dec 13
New

Hourly Weather History & Observations

Time (CST) Temp. Dew Point Humidity Pressure Visibility Wind Dir Wind Speed Gust Speed Precip Events Conditions
12:53 AM 52.0 °F 39.0 °F 61% 30.27 in 10.0 mi SE 5.8 mph - N/A   Clear
1:53 AM 53.1 °F 39.0 °F 59% 30.27 in 10.0 mi SE 5.8 mph - N/A   Clear
2:53 AM 53.1 °F 39.9 °F 61% 30.27 in 10.0 mi SSE 3.5 mph - N/A   Overcast
3:53 AM 53.1 °F 41.0 °F 64% 30.26 in 10.0 mi SSE 4.6 mph - 0.00 in Rain Light Rain
4:53 AM 50.0 °F 41.0 °F 71% 30.25 in 10.0 mi ESE 3.5 mph - 0.00 in   Overcast
5:53 AM 48.9 °F 43.0 °F 80% 30.26 in 10.0 mi Calm Calm - N/A   Mostly Cloudy
6:53 AM 51.1 °F 39.9 °F 66% 30.26 in 10.0 mi South 4.6 mph - N/A   Overcast
7:53 AM 53.1 °F 41.0 °F 64% 30.27 in 10.0 mi Calm Calm - N/A   Overcast
8:53 AM 55.0 °F 41.0 °F 59% 30.29 in 10.0 mi Calm Calm - N/A   Scattered Clouds
9:53 AM 57.9 °F 41.0 °F 53% 30.29 in 10.0 mi SSW 4.6 mph - N/A   Mostly Cloudy
10:53 AM 61.0 °F 42.1 °F 50% 30.29 in 10.0 mi South 3.5 mph - N/A   Overcast
11:53 AM 62.1 °F 43.0 °F 50% 30.25 in 10.0 mi Calm Calm - N/A   Overcast
12:53 PM 64.9 °F 41.0 °F 42% 30.22 in 10.0 mi South 5.8 mph - N/A   Overcast
1:53 PM 66.0 °F 43.0 °F 43% 30.20 in 10.0 mi SSW 4.6 mph - N/A   Overcast
2:53 PM 66.9 °F 43.0 °F 42% 30.18 in 10.0 mi SSE 5.8 mph - N/A   Overcast
3:53 PM 66.0 °F 44.1 °F 45% 30.18 in 10.0 mi SE 3.5 mph - N/A   Overcast
4:53 PM 64.9 °F 44.1 °F 47% 30.18 in 10.0 mi Calm Calm - N/A   Overcast
5:53 PM 62.1 °F 45.0 °F 53% 30.19 in 10.0 mi ESE 3.5 mph - N/A   Overcast
6:53 PM 60.1 °F 46.0 °F 60% 30.19 in 10.0 mi SE 4.6 mph - N/A   Overcast
7:53 PM 61.0 °F 45.0 °F 56% 30.19 in 10.0 mi SSE 5.8 mph - N/A   Overcast
9:53 PM 60.1 °F 46.9 °F 62% 30.19 in 10.0 mi Calm Calm - N/A   Overcast
10:53 PM 60.1 °F 46.0 °F 60% 30.18 in 10.0 mi Calm Calm - N/A   Overcast
11:53 PM 57.9 °F 48.0 °F 70% 30.17 in 10.0 mi Calm Calm - N/A   Overcast